Location: Quedlinburg
(51.7921°N, 11.1414°E)
Time: 08:47:46
(UTC+02:00)

RS-44 - Pass Details

Date: 23 March 2026
Orbit: 1175 x 1510 km, 82.5° (Epoch: 13 April)

Event Time Altitude Azimuth Distance (km) Brightness Sun altitude
Rises 22:13:44 0° 345° (NNW) 4,423 ? -30.4°
Maximum altitude 22:21:45 10° 33° (NNE) 3,561 ? -31.2°
Drops below altitude 10° 22:21:49 10° 33° (NNE) 3,561 ? -31.2°
Enters shadow 22:28:38 - 74° (ENE) 4,337 ? -31.8°
